• In Netherlands
  • List of Countries
  • For 7 days
  • Water Temperature
  • Satellite Maps
  • Weather Map
  • Weather Widgets
  • user-avatar
    Login

    Hourly Weather Vanadzor

    Today, 23 January, Monday

    Time Temperature Precipitation Wind Pressure Humidity
    00:00 -12°C° 0 mm 1 mps 635 mmHg 94%
    01:00 -12°C° 0 mm 1 mps 636 mmHg 94%
    02:00 -12°C° 0 mm 1 mps 636 mmHg 94%
    03:00 -12°C° 0 mm 1 mps 636 mmHg 94%
    04:00 -13°C° 0 mm 1 mps 636 mmHg 94%
    05:00 -13°C° 0 mm 1 mps 636 mmHg 94%
    06:00 -13°C° 0 mm 1 mps 636 mmHg 94%
    07:00 -11°C° 0 mm 1 mps 637 mmHg 93%
    08:00 -9°C° 0 mm 1 mps 638 mmHg 91%
    09:00 -7°C° 0 mm 1 mps 639 mmHg 90%
    10:00 -6°C° 0 mm 1 mps 639 mmHg 88%
    11:00 -3°C° 0 mm 1 mps 639 mmHg 86%
    12:00 -1°C° 0 mm 1 mps 639 mmHg 84%
    13:00 -1°C° 0 mm 1 mps 639 mmHg 85%
    14:00 -1°C° 0 mm 1 mps 639 mmHg 85%
    15:00 -1°C° 0 mm 0 mps 639 mmHg 86%
    16:00 -5°C° 0 mm 0 mps 637 mmHg 90%
    17:00 -9°C° 0 mm 0 mps 636 mmHg 94%
    18:00 -12°C° 0 mm 0 mps 635 mmHg 97%
    19:00 -13°C° 0 mm 1 mps 635 mmHg 96%
    20:00 -13°C° 0 mm 1 mps 635 mmHg 95%
    21:00 -14°C° 0 mm 1 mps 635 mmHg 94%
    22:00 -14°C° 0 mm 1 mps 635 mmHg 94%
    23:00 -14°C° 0 mm 1 mps 635 mmHg 94%

    Tomorrow, 24 January, Tuesday

    Time Temperature Precipitation Wind Pressure Humidity
    00:00 -14°C° 0 mm 1 mps 635 mmHg 94%
    01:00 -15°C° 0 mm 1 mps 635 mmHg 94%
    02:00 -15°C° 0 mm 1 mps 635 mmHg 94%
    03:00 -15°C° 0 mm 1 mps 635 mmHg 94%
    04:00 -15°C° 0 mm 1 mps 635 mmHg 93%
    05:00 -15°C° 0 mm 1 mps 635 mmHg 93%
    06:00 -15°C° 0 mm 1 mps 635 mmHg 93%
    07:00 -12°C° 0 mm 1 mps 636 mmHg 91%
    08:00 -10°C° 0 mm 1 mps 637 mmHg 90%
    09:00 -7°C° 0 mm 1 mps 639 mmHg 88%
    10:00 -4°C° 0 mm 1 mps 639 mmHg 87%
    11:00 -2°C° 0 mm 1 mps 639 mmHg 85%
    12:00 0°C° 0 mm 1 mps 639 mmHg 84%
    13:00 0°C° 0 mm 1 mps 639 mmHg 85%
    14:00 0°C° 0 mm 1 mps 638 mmHg 86%
    15:00 0°C° 0 mm 1 mps 638 mmHg 88%
    16:00 -4°C° 0 mm 1 mps 636 mmHg 91%
    17:00 -8°C° 0 mm 1 mps 635 mmHg 94%
    18:00 -12°C° 0 mm 1 mps 634 mmHg 97%
    19:00 -12°C° 0 mm 1 mps 634 mmHg 96%
    20:00 -12°C° 0 mm 1 mps 634 mmHg 95%
    21:00 -15°C° 0 mm 2 mps 634 mmHg 93%
    22:00 -15°C° 0 mm 2 mps 634 mmHg 93%
    23:00 -14°C° 0 mm 2 mps 634 mmHg 92%

    Day after tomorrow, 25 January, Wednesday

    Time Temperature Precipitation Wind Pressure Humidity
    00:00 -14°C° 0 mm 2 mps 634 mmHg 91%
    01:00 -14°C° 0 mm 2 mps 633 mmHg 91%
    02:00 -13°C° 0 mm 2 mps 633 mmHg 90%
    03:00 -12°C° 0 mm 2 mps 633 mmHg 90%
    04:00 -12°C° 0 mm 2 mps 633 mmHg 89%
    05:00 -12°C° 0 mm 2 mps 632 mmHg 89%
    06:00 -12°C° 0 mm 2 mps 632 mmHg 89%
    07:00 -10°C° 0 mm 2 mps 632 mmHg 88%
    08:00 -8°C° 0 mm 2 mps 633 mmHg 87%
    09:00 -6°C° 0 mm 2 mps 633 mmHg 85%
    10:00 -5°C° 0 mm 2 mps 633 mmHg 84%
    11:00 -3°C° 0 mm 2 mps 633 mmHg 82%
    12:00 -2°C° 0 mm 2 mps 632 mmHg 81%
    13:00 -2°C° 0 mm 2 mps 632 mmHg 82%
    14:00 -2°C° 0 mm 2 mps 631 mmHg 83%
    15:00 -2°C° 0 mm 2 mps 631 mmHg 85%
    16:00 -3°C° 0.1 mm 2 mps 631 mmHg 87%
    17:00 -4°C° 0.1 mm 2 mps 630 mmHg 89%
    18:00 -5°C° 0.1 mm 2 mps 630 mmHg 91%
    19:00 -5°C° 0.1 mm 2 mps 630 mmHg 91%
    20:00 -5°C° 0.1 mm 2 mps 630 mmHg 91%
    21:00 -5°C° 0.1 mm 2 mps 630 mmHg 92%
    22:00 -5°C° 0.2 mm 2 mps 630 mmHg 92%
    23:00 -5°C° 0.2 mm 2 mps 630 mmHg 92%

    26 January, Thursday

    Time Temperature Precipitation Wind Pressure Humidity
    00:00 -5°C° 0.2 mm 2 mps 630 mmHg 92%
    01:00 -5°C° 0.2 mm 2 mps 630 mmHg 92%
    02:00 -5°C° 0.2 mm 2 mps 629 mmHg 93%
    03:00 -5°C° 0.2 mm 2 mps 629 mmHg 93%
    04:00 -5°C° 0.2 mm 2 mps 629 mmHg 93%
    05:00 -5°C° 0.2 mm 2 mps 629 mmHg 93%
    06:00 -5°C° 0.2 mm 2 mps 629 mmHg 93%
    07:00 -5°C° 0.2 mm 2 mps 629 mmHg 92%
    08:00 -4°C° 0.2 mm 2 mps 629 mmHg 92%
    09:00 -4°C° 0.2 mm 2 mps 629 mmHg 91%
    10:00 -3°C° 0.3 mm 2 mps 629 mmHg 90%
    11:00 -3°C° 0.3 mm 2 mps 629 mmHg 89%
    12:00 -2°C° 0.3 mm 2 mps 629 mmHg 87%
    13:00 0°C° 0.3 mm 1 mps 628 mmHg 88%
    14:00 0°C° 0.3 mm 1 mps 628 mmHg 88%
    15:00 0°C° 0.3 mm 1 mps 628 mmHg 89%
    16:00 -1°C° 0.2 mm 1 mps 628 mmHg 92%
    17:00 -2°C° 0.2 mm 1 mps 628 mmHg 95%
    18:00 -3°C° 0.2 mm 1 mps 628 mmHg 97%
    19:00 -3°C° 0.4 mm 1 mps 629 mmHg 97%
    20:00 -3°C° 0.4 mm 1 mps 629 mmHg 97%
    21:00 -3°C° 0.4 mm 1 mps 629 mmHg 97%
    22:00 -3°C° 0.5 mm 1 mps 629 mmHg 97%
    23:00 -4°C° 0.5 mm 1 mps 629 mmHg 97%

    27 January, Friday

    Time Temperature Precipitation Wind Pressure Humidity
    00:00 -4°C° 0.5 mm 1 mps 629 mmHg 97%
    01:00 -4°C° 0.4 mm 1 mps 630 mmHg 97%
    02:00 -4°C° 0.4 mm 1 mps 630 mmHg 97%
    03:00 -6°C° 0.4 mm 1 mps 630 mmHg 97%
    04:00 -6°C° 0.4 mm 1 mps 630 mmHg 97%
    05:00 -6°C° 0.4 mm 1 mps 630 mmHg 97%
    06:00 -6°C° 0.4 mm 1 mps 630 mmHg 97%
    07:00 -6°C° 0.4 mm 1 mps 631 mmHg 96%
    08:00 -6°C° 0.4 mm 1 mps 631 mmHg 96%
    09:00 -6°C° 0.4 mm 1 mps 631 mmHg 95%
    10:00 -6°C° 0.4 mm 1 mps 631 mmHg 95%
    11:00 -4°C° 0.4 mm 1 mps 631 mmHg 94%
    12:00 -4°C° 0.4 mm 1 mps 631 mmHg 93%
    13:00 -4°C° 0.3 mm 1 mps 631 mmHg 93%
    14:00 -4°C° 0.3 mm 1 mps 630 mmHg 93%
    15:00 -4°C° 0.3 mm 1 mps 630 mmHg 94%
    16:00 -6°C° 0.3 mm 1 mps 630 mmHg 95%
    17:00 -7°C° 0.3 mm 1 mps 630 mmHg 96%
    18:00 -8°C° 0.3 mm 1 mps 630 mmHg 97%
    19:00 -8°C° 0.4 mm 1 mps 630 mmHg 97%
    20:00 -8°C° 0.4 mm 1 mps 630 mmHg 97%
    21:00 -8°C° 0.4 mm 1 mps 630 mmHg 97%
    22:00 -9°C° 0.4 mm 1 mps 630 mmHg 97%
    23:00 -9°C° 0.4 mm 1 mps 630 mmHg 97%

    28 January, Saturday

    Time Temperature Precipitation Wind Pressure Humidity
    00:00 -9°C° 0.4 mm 1 mps 630 mmHg 97%
    01:00 -9°C° 0.4 mm 1 mps 630 mmHg 98%
    02:00 -9°C° 0.4 mm 1 mps 630 mmHg 98%
    03:00 -9°C° 0.4 mm 1 mps 630 mmHg 98%
    04:00 -9°C° 0.5 mm 1 mps 630 mmHg 98%
    05:00 -9°C° 0.5 mm 1 mps 630 mmHg 98%
    06:00 -9°C° 0.5 mm 1 mps 630 mmHg 98%
    07:00 -8°C° 0.3 mm 1 mps 630 mmHg 97%
    08:00 -8°C° 0.3 mm 1 mps 630 mmHg 97%
    09:00 -8°C° 0.3 mm 1 mps 630 mmHg 96%
    10:00 -7°C° 0.3 mm 1 mps 630 mmHg 96%
    11:00 -6°C° 0.3 mm 1 mps 630 mmHg 96%
    12:00 -6°C° 0.3 mm 2 mps 630 mmHg 96%
    13:00 -6°C° 0.4 mm 2 mps 630 mmHg 96%
    14:00 -6°C° 0.4 mm 2 mps 630 mmHg 96%
    15:00 -6°C° 0.4 mm 2 mps 629 mmHg 96%
    16:00 -7°C° 0.3 mm 2 mps 630 mmHg 97%
    17:00 -8°C° 0.3 mm 2 mps 630 mmHg 97%
    18:00 -8°C° 0.3 mm 2 mps 630 mmHg 98%
    19:00 -9°C° 0.2 mm 2 mps 630 mmHg 98%
    20:00 -9°C° 0.2 mm 2 mps 630 mmHg 98%
    21:00 -9°C° 0.2 mm 2 mps 630 mmHg 98%
    22:00 -8°C° 0.2 mm 1 mps 630 mmHg 98%
    23:00 -9°C° 0.2 mm 1 mps 630 mmHg 98%
    Show more